Location: Cossonay
(46.5833°N, 6.4167°E)
Time: 21:38:23
(UTC+00:00)

CBERS-1 - Pass Details

Date: 02 October 2020
Orbit: 770 x 777 km, 98.6° (Epoch: 22 October)

Event Time Altitude Azimuth Distance (km) Brightness Sun altitude
Rises 02:56:39 0° 6° (N) 3,259 7.7 -27.2°
Reaches altitude 10° 02:59:10 10° 356° (N) 2,328 6.7 -26.8°
Enters shadow 03:01:53 25° 331° (NNW) 1,525 5.5 -26.4°
